| time (UTC) | temp F | wind direction | speed MPH | gust MPH | rain 1hr in | rain 24hr in | rain mn in | humidity % | barometer mb |
| 20260505213903 | 76 | 239 | 4.0 | 8.0 | 0.00 | 0.00 | 0.00 | 34 | 1011.9 |
| 20260505213404 | 76 | 207 | 3.0 | 6.0 | 0.00 | 0.00 | 0.00 | 35 | 1011.9 |
| 20260505212903 | 76 | 218 | 3.0 | 8.0 | 0.00 | 0.00 | 0.00 | 35 | 1011.9 |
| 20260505212403 | 76 | 236 | 2.0 | 3.0 | 0.00 | 0.00 | 0.00 | 34 | 1011.9 |
| 20260505211904 | 76 | 246 | 4.0 | 7.0 | 0.00 | 0.00 | 0.00 | 33 | 1011.9 |
| 20260505211403 | 76 | 250 | 3.0 | 3.0 | 0.00 | 0.00 | 0.00 | 32 | 1011.7 |
| 20260505210904 | 76 | 202 | 2.0 | 6.0 | 0.00 | 0.00 | 0.00 | 30 | 1011.7 |
| 20260505205404 | 77 | 226 | 5.0 | 12.0 | 0.00 | 0.00 | 0.00 | 27 | 1012.0 |
| 20260505204903 | 77 | 228 | 5.0 | 15.0 | 0.00 | 0.00 | 0.00 | 27 | 1012.0 |
| 20260505204403 | 78 | 251 | 3.0 | 8.0 | 0.00 | 0.00 | 0.00 | 27 | 1012.0 |
| 20260505203904 | 78 | 249 | 7.0 | 14.0 | 0.00 | 0.00 | 0.00 | 28 | 1012.0 |
| 20260505203403 | 78 | 229 | 3.0 | 9.0 | 0.00 | 0.00 | 0.00 | 32 | 1012.0 |
| 20260505202903 | 79 | 247 | 3.0 | 14.0 | 0.00 | 0.00 | 0.00 | 32 | 1012.3 |
| 20260505202404 | 79 | 119 | 4.0 | 14.0 | 0.00 | 0.00 | 0.00 | 30 | 1012.3 |
| 20260505201903 | 80 | 235 | 4.0 | 9.0 | 0.00 | 0.00 | 0.00 | 30 | 1012.3 |
| 20260505201403 | 79 | 186 | 7.0 | 12.0 | 0.00 | 0.00 | 0.00 | 30 | 1012.6 |
| 20260505200904 | 79 | 247 | 6.0 | 12.0 | 0.00 | 0.00 | 0.00 | 30 | 1012.6 |
| 20260505195903 | 79 | 221 | 5.0 | 10.0 | 0.00 | 0.00 | 0.00 | 27 | 1012.6 |
| 20260505195404 | 79 | 241 | 7.0 | 12.0 | 0.00 | 0.00 | 0.00 | 26 | 1012.6 |
| 20260505194903 | 79 | 233 | 5.0 | 14.0 | 0.00 | 0.00 | 0.00 | 27 | 1012.6 |
| 20260505194404 | 79 | 190 | 5.0 | 12.0 | 0.00 | 0.00 | 0.00 | 31 | 1012.6 |
| 20260505193906 | 79 | 228 | 6.0 | 12.0 | 0.00 | 0.00 | 0.00 | 30 | 1012.6 |
| 20260505193403 | 79 | 170 | 6.0 | 16.0 | 0.00 | 0.00 | 0.00 | 31 | 1012.6 |
| 20260505192904 | 79 | 222 | 6.0 | 9.0 | 0.00 | 0.00 | 0.00 | 34 | 1012.6 |
| 20260505192404 | 78 | 130 | 7.0 | 13.0 | 0.00 | 0.00 | 0.00 | 36 | 1012.6 |
| 20260505191903 | 78 | 224 | 6.0 | 12.0 | 0.00 | 0.00 | 0.00 | 35 | 1012.6 |
| 20260505191404 | 79 | 263 | 7.0 | 13.0 | 0.00 | 0.00 | 0.00 | 32 | 1012.9 |
| 20260505190903 | 79 | 255 | 7.0 | 13.0 | 0.00 | 0.00 | 0.00 | 33 | 1012.9 |
| 20260505190403 | 79 | 166 | 6.0 | 12.0 | 0.00 | 0.00 | 0.00 | 33 | 1012.9 |
| 20260505185904 | 79 | 214 | 6.0 | 13.0 | 0.00 | 0.00 | 0.00 | 34 | 1012.9 |
| 20260505184903 | 77 | 161 | 6.0 | 13.0 | 0.00 | 0.00 | 0.00 | 38 | 1013.2 |
| 20260505184404 | 77 | 266 | 5.0 | 12.0 | 0.00 | 0.00 | 0.00 | 38 | 1013.4 |
| 20260505183904 | 77 | 190 | 6.0 | 12.0 | 0.00 | 0.00 | 0.00 | 39 | 1013.4 |
| 20260505183403 | 77 | 241 | 4.0 | 9.0 | 0.00 | 0.00 | 0.00 | 40 | 1013.5 |
| 20260505182904 | 77 | 229 | 6.0 | 12.0 | 0.00 | 0.00 | 0.00 | 40 | 1013.5 |
| 20260505182403 | 77 | 152 | 6.0 | 10.0 | 0.00 | 0.00 | 0.00 | 40 | 1013.5 |
| 20260505181903 | 76 | 218 | 6.0 | 13.0 | 0.00 | 0.00 | 0.00 | 39 | 1013.5 |
| 20260505180903 | 76 | 229 | 7.0 | 13.0 | 0.00 | 0.00 | 0.00 | 38 | 1013.5 |
| 20260505175904 | 77 | 167 | 7.0 | 14.0 | 0.00 | 0.00 | 0.00 | 36 | 1013.5 |
| 20260505175403 | 77 | 130 | 5.0 | 12.0 | 0.00 | 0.00 | 0.00 | 37 | 1013.8 |
| 20260505174903 | 77 | 160 | 6.0 | 12.0 | 0.00 | 0.00 | 0.00 | 37 | 1013.8 |
| 20260505174404 | 77 | 164 | 8.0 | 13.0 | 0.00 | 0.00 | 0.00 | 36 | 1014.1 |
| 20260505173903 | 77 | 155 | 7.0 | 14.0 | 0.00 | 0.00 | 0.00 | 38 | 1014.1 |
| 20260505173403 | 76 | 134 | 6.0 | 12.0 | 0.00 | 0.00 | 0.00 | 38 | 1014.1 |
| 20260505172904 | 76 | 208 | 5.0 | 10.0 | 0.00 | 0.00 | 0.00 | 39 | 1014.6 |
| 20260505172403 | 76 | 183 | 9.0 | 16.0 | 0.00 | 0.00 | 0.00 | 38 | 1014.6 |
| 20260505171904 | 76 | 220 | 6.0 | 12.0 | 0.00 | 0.00 | 0.00 | 41 | 1014.6 |
| 20260505170904 | 75 | 213 | 5.0 | 12.0 | 0.00 | 0.00 | 0.00 | 44 | 1014.6 |
| 20260505165404 | 74 | 258 | 5.0 | 12.0 | 0.00 | 0.00 | 0.00 | 43 | 1014.6 |
| 20260505164904 | 74 | 263 | 5.0 | 7.0 | 0.00 | 0.00 | 0.00 | 44 | 1014.6 |
| 20260505164404 | 74 | 226 | 2.0 | 6.0 | 0.00 | 0.00 | 0.00 | 46 | 1014.7 |
| 20260505163905 | 74 | 161 | 4.0 | 9.0 | 0.00 | 0.00 | 0.00 | 46 | 1014.7 |
| 20260505163404 | 74 | 258 | 4.0 | 7.0 | 0.00 | 0.00 | 0.00 | 45 | 1014.7 |
| 20260505162903 | 75 | 186 | 3.0 | 9.0 | 0.00 | 0.00 | 0.00 | 45 | 1014.4 |
| 20260505162404 | 75 | 137 | 3.0 | 7.0 | 0.00 | 0.00 | 0.00 | 45 | 1014.4 |
| 20260505161403 | 75 | 185 | 3.0 | 12.0 | 0.00 | 0.00 | 0.00 | 49 | 1014.6 |
| 20260505160404 | 74 | 98 | 3.0 | 9.0 | 0.00 | 0.00 | 0.00 | 52 | 1014.6 |
| 20260505152904 | 72 | 219 | 3.0 | 6.0 | 0.00 | 0.00 | 0.00 | 49 | 1015.1 |
| 20260505151904 | 71 | 239 | 2.0 | 5.0 | 0.00 | 0.00 | 0.00 | 52 | 1015.1 |
| 20260505151403 | 70 | 228 | 3.0 | 6.0 | 0.00 | 0.00 | 0.00 | 53 | 1015.1 |
| 20260505150904 | 69 | 259 | 2.0 | 10.0 | 0.00 | 0.00 | 0.00 | 53 | 1015.1 |
| 20260505150405 | 69 | 256 | 4.0 | 9.0 | 0.00 | 0.00 | 0.00 | 51 | 1015.1 |
| 20260505124904 | 57 | 175 | 2.0 | 3.0 | 0.00 | 0.00 | 0.00 | 70 | 1014.7 |
| 20260505123904 | 56 | 174 | 1.0 | 3.0 | 0.00 | 0.00 | 0.00 | 74 | 1014.5 |
| 20260505123403 | 55 | 142 | 0.0 | 0.0 | 0.00 | 0.00 | 0.00 | 76 | 1014.5 |
| 20260505122905 | 55 | 142 | 0.0 | 0.0 | 0.00 | 0.00 | 0.00 | 76 | 1014.5 |
| 20260505122403 | 54 | 142 | 0.0 | 1.0 | 0.00 | 0.00 | 0.00 | 76 | 1014.5 |
| 20260505121904 | 54 | 142 | 0.0 | 1.0 | 0.00 | 0.00 | 0.00 | 78 | 1014.5 |
| 20260505121405 | 53 | 142 | 0.0 | 0.0 | 0.00 | 0.00 | 0.00 | 80 | 1014.4 |
| 20260505120903 | 53 | 142 | 0.0 | 1.0 | 0.00 | 0.00 | 0.00 | 80 | 1014.4 |
| 20260505115905 | 52 | 142 | 0.0 | 1.0 | 0.00 | 0.00 | 0.00 | 82 | 1014.2 |
| 20260505115403 | 51 | 142 | 1.0 | 2.0 | 0.00 | 0.00 | 0.00 | 83 | 1014.2 |
| 20260505114405 | 50 | 142 | 0.0 | 1.0 | 0.00 | 0.00 | 0.00 | 84 | 1014.0 |
| 20260505113904 | 50 | 128 | 0.0 | 0.0 | 0.00 | 0.00 | 0.00 | 83 | 1014.0 |
| 20260505113404 | 50 | 128 | 0.0 | 1.0 | 0.00 | 0.00 | 0.00 | 84 | 1014.0 |
| 20260505112905 | 50 | 128 | 0.0 | 1.0 | 0.00 | 0.00 | 0.00 | 84 | 1014.0 |
| 20260505111904 | 49 | 128 | 0.0 | 0.0 | 0.00 | 0.00 | 0.00 | 83 | 1013.5 |
| 20260505111405 | 49 | 128 | 0.0 | 0.0 | 0.00 | 0.00 | 0.00 | 83 | 1013.5 |
| 20260505110904 | 49 | 128 | 0.0 | 0.0 | 0.00 | 0.00 | 0.00 | 83 | 1013.5 |
| 20260505110404 | 49 | 128 | 0.0 | 1.0 | 0.00 | 0.00 | 0.00 | 83 | 1013.5 |
| 20260505101904 | 49 | 204 | 0.0 | 2.0 | 0.00 | 0.00 | 0.00 | 83 | 1013.2 |
| 20260505101405 | 49 | 187 | 0.0 | 0.0 | 0.00 | 0.00 | 0.00 | 83 | 1013.2 |
| 20260505095905 | 49 | 187 | 0.0 | 0.0 | 0.00 | 0.00 | 0.00 | 83 | 1013.3 |
| 20260505095404 | 49 | 187 | 0.0 | 2.0 | 0.00 | 0.00 | 0.00 | 83 | 1013.3 |
| 20260505094904 | 49 | 125 | 0.0 | 1.0 | 0.00 | 0.00 | 0.00 | 84 | 1013.4 |
| 20260505094404 | 49 | 125 | 0.0 | 1.0 | 0.00 | 0.00 | 0.00 | 84 | 1013.4 |
| 20260505093904 | 49 | 125 | 1.0 | 2.0 | 0.00 | 0.00 | 0.00 | 84 | 1013.4 |
| 20260505091904 | 49 | 196 | 0.0 | 0.0 | 0.00 | 0.00 | 0.00 | 83 | 1013.4 |
| 20260505091405 | 49 | 196 | 0.0 | 0.0 | 0.00 | 0.00 | 0.00 | 83 | 1013.4 |
| 20260505090904 | 49 | 196 | 0.0 | 0.0 | 0.00 | 0.00 | 0.00 | 83 | 1013.4 |
| 20260505090404 | 49 | 196 | 0.0 | 0.0 | 0.00 | 0.00 | 0.00 | 83 | 1013.4 |
| 20260505085905 | 49 | 196 | 0.0 | 0.0 | 0.00 | 0.00 | 0.00 | 83 | 1013.1 |
| 20260505085403 | 49 | 196 | 0.0 | 0.0 | 0.00 | 0.00 | 0.00 | 83 | 1013.1 |
| 20260505084904 | 50 | 196 | 0.0 | 0.0 | 0.00 | 0.00 | 0.00 | 82 | 1013.1 |
| 20260505084405 | 50 | 196 | 0.0 | 0.0 | 0.00 | 0.00 | 0.00 | 82 | 1013.5 |
| 20260505083904 | 50 | 196 | 0.0 | 0.0 | 0.00 | 0.00 | 0.00 | 82 | 1013.5 |
| 20260505083404 | 50 | 196 | 0.0 | 0.0 | 0.00 | 0.00 | 0.00 | 82 | 1013.5 |
| 20260505082905 | 50 | 196 | 0.0 | 0.0 | 0.00 | 0.00 | 0.00 | 82 | 1013.5 |
| 20260505082404 | 50 | 196 | 0.0 | 0.0 | 0.00 | 0.00 | 0.00 | 82 | 1013.5 |
| 20260505081405 | 50 | 196 | 0.0 | 0.0 | 0.00 | 0.00 | 0.00 | 82 | 1013.4 |
| 20260505080904 | 51 | 196 | 0.0 | 0.0 | 0.00 | 0.00 | 0.00 | 81 | 1013.4 |
| 20260505080404 | 51 | 196 | 0.0 | 0.0 | 0.00 | 0.00 | 0.00 | 81 | 1013.4 |
| 20260505075905 | 51 | 196 | 0.0 | 0.0 | 0.00 | 0.00 | 0.00 | 81 | 1013.4 |
| 20260505075404 | 51 | 196 | 0.0 | 0.0 | 0.00 | 0.00 | 0.00 | 81 | 1013.4 |
| 20260505074904 | 51 | 196 | 0.0 | 0.0 | 0.00 | 0.00 | 0.00 | 81 | 1013.4 |
| 20260505074405 | 51 | 196 | 0.0 | 0.0 | 0.00 | 0.00 | 0.00 | 81 | 1013.4 |
| 20260505073903 | 51 | 196 | 0.0 | 0.0 | 0.00 | 0.00 | 0.00 | 81 | 1013.4 |
| 20260505073404 | 51 | 196 | 0.0 | 0.0 | 0.00 | 0.00 | 0.00 | 80 | 1013.4 |
| 20260505072905 | 52 | 196 | 0.0 | 1.0 | 0.00 | 0.00 | 0.00 | 80 | 1013.5 |
| 20260505072404 | 52 | 196 | 0.0 | 1.0 | 0.00 | 0.00 | 0.00 | 80 | 1013.5 |
| 20260505071903 | 52 | 196 | 0.0 | 0.0 | 0.00 | 0.00 | 0.00 | 80 | 1013.5 |
| 20260505070904 | 52 | 196 | 0.0 | 0.0 | 0.00 | 0.00 | 0.00 | 79 | 1013.4 |
| 20260505070404 | 52 | 196 | 0.0 | 0.0 | 0.00 | 0.00 | 0.00 | 79 | 1013.4 |
| 20260505065905 | 53 | 196 | 0.0 | 0.0 | 0.00 | 0.00 | 0.00 | 78 | 1013.4 |
| 20260505065404 | 53 | 196 | 0.0 | 0.0 | 0.00 | 0.00 | 0.00 | 78 | 1013.4 |
| 20260505064404 | 53 | 196 | 0.0 | 0.0 | 0.00 | 0.00 | 0.00 | 76 | 1013.4 |
| 20260505063904 | 53 | 196 | 0.0 | 0.0 | 0.00 | 0.00 | 0.00 | 76 | 1013.5 |
| 20260505063405 | 54 | 196 | 0.0 | 0.0 | 0.00 | 0.00 | 0.00 | 76 | 1013.5 |
| 20260505062904 | 54 | 196 | 0.0 | 0.0 | 0.00 | 0.00 | 0.00 | 76 | 1013.6 |
| 20260505062404 | 54 | 196 | 0.0 | 0.0 | 0.00 | 0.00 | 0.00 | 76 | 1013.5 |
| 20260505061905 | 54 | 196 | 0.0 | 0.0 | 0.00 | 0.00 | 0.00 | 75 | 1013.5 |
| 20260505061405 | 55 | 196 | 0.0 | 0.0 | 0.00 | 0.00 | 0.00 | 75 | 1013.5 |
| 20260505060904 | 55 | 196 | 0.0 | 0.0 | 0.00 | 0.00 | 0.00 | 74 | 1013.5 |
| 20260505060405 | 55 | 196 | 0.0 | 0.0 | 0.00 | 0.00 | 0.00 | 74 | 1013.5 |
| 20260505055904 | 55 | 196 | 0.0 | 0.0 | 0.00 | 0.00 | 0.00 | 74 | 1013.5 |
| 20260505054905 | 56 | 196 | 0.0 | 0.0 | 0.00 | 0.00 | 0.00 | 75 | 1013.5 |
| 20260505054403 | 56 | 196 | 0.0 | 0.0 | 0.00 | 0.00 | 0.00 | 74 | 1013.5 |
| 20260505053904 | 56 | 196 | 0.0 | 0.0 | 0.00 | 0.00 | 0.00 | 73 | 1013.5 |
| 20260505053405 | 56 | 196 | 0.0 | 0.0 | 0.00 | 0.00 | 0.00 | 73 | 1013.5 |
| 20260505052904 | 57 | 196 | 0.0 | 0.0 | 0.00 | 0.00 | 0.00 | 72 | 1013.4 |
| 20260505052404 | 57 | 196 | 0.0 | 1.0 | 0.00 | 0.00 | 0.00 | 71 | 1013.4 |
| 20260505051905 | 57 | 196 | 1.0 | 1.0 | 0.00 | 0.00 | 0.00 | 70 | 1013.4 |
| 20260505050904 | 58 | 212 | 0.0 | 3.0 | 0.00 | 0.00 | 0.00 | 69 | 1013.4 |
| 20260505050409 | 58 | 249 | 1.0 | 6.0 | 0.00 | 0.00 | 0.00 | 65 | 1013.4 |
| 20260505041403 | 54 | 281 | 0.0 | 0.0 | 0.00 | 0.00 | 0.00 | 79 | 1013.4 |
| 20260505040902 | 54 | 270 | 0.0 | 0.0 | 0.00 | 0.00 | 0.00 | 79 | 1013.4 |
| 20260505040404 | 55 | 270 | 0.0 | 0.0 | 0.00 | 0.00 | 0.00 | 78 | 1013.4 |
| 20260505035903 | 55 | 270 | 0.0 | 0.0 | 0.00 | 0.00 | 0.00 | 78 | 1013.4 |
| 20260505035403 | 55 | 270 | 0.0 | 1.0 | 0.00 | 0.00 | 0.00 | 78 | 1013.4 |
| 20260505034903 | 55 | 270 | 0.0 | 1.0 | 0.00 | 0.00 | 0.00 | 78 | 1013.4 |
| 20260505033903 | 55 | 270 | 0.0 | 1.0 | 0.00 | 0.00 | 0.00 | 78 | 1013.4 |
| 20260505032403 | 56 | 269 | 0.0 | 1.0 | 0.00 | 0.00 | 0.00 | 76 | 1013.3 |
| 20260505031403 | 56 | 270 | 0.0 | 0.0 | 0.00 | 0.00 | 0.00 | 75 | 1013.4 |
| 20260505030903 | 56 | 270 | 0.0 | 0.0 | 0.00 | 0.00 | 0.00 | 74 | 1013.4 |
| 20260505030404 | 56 | 270 | 0.0 | 0.0 | 0.00 | 0.00 | 0.00 | 74 | 1013.4 |
| 20260505025902 | 57 | 269 | 0.0 | 1.0 | 0.00 | 0.00 | 0.00 | 74 | 1013.5 |
| 20260505025403 | 57 | 269 | 0.0 | 0.0 | 0.00 | 0.00 | 0.00 | 73 | 1013.5 |
| 20260505024904 | 57 | 269 | 0.0 | 0.0 | 0.00 | 0.00 | 0.00 | 72 | 1013.5 |
| 20260505023902 | 58 | 269 | 0.0 | 0.0 | 0.00 | 0.00 | 0.00 | 71 | 1013.5 |
| 20260505023404 | 58 | 270 | 0.0 | 0.0 | 0.00 | 0.00 | 0.00 | 70 | 1013.5 |
| 20260505022903 | 58 | 270 | 0.0 | 0.0 | 0.00 | 0.00 | 0.00 | 70 | 1013.4 |
| 20260505022403 | 58 | 269 | 0.0 | 0.0 | 0.00 | 0.00 | 0.00 | 70 | 1013.4 |
| 20260505021903 | 58 | 269 | 0.0 | 0.0 | 0.00 | 0.00 | 0.00 | 69 | 1013.4 |
| 20260505021403 | 59 | 269 | 0.0 | 0.0 | 0.00 | 0.00 | 0.00 | 69 | 1013.4 |
| 20260505015903 | 60 | 269 | 0.0 | 0.0 | 0.00 | 0.00 | 0.00 | 66 | 1013.4 |
| 20260505015403 | 60 | 269 | 0.0 | 0.0 | 0.00 | 0.00 | 0.00 | 65 | 1013.4 |
| 20260505014904 | 61 | 269 | 0.0 | 0.0 | 0.00 | 0.00 | 0.00 | 65 | 1013.0 |
| 20260505014402 | 61 | 270 | 0.0 | 0.0 | 0.00 | 0.00 | 0.00 | 64 | 1013.0 |
| 20260505013902 | 61 | 269 | 0.0 | 0.0 | 0.00 | 0.00 | 0.00 | 63 | 1013.0 |
| 20260505013404 | 61 | 269 | 0.0 | 0.0 | 0.00 | 0.00 | 0.00 | 63 | 1013.0 |
| 20260505012902 | 62 | 270 | 0.0 | 0.0 | 0.00 | 0.00 | 0.00 | 62 | 1012.7 |
| 20260505012403 | 62 | 269 | 0.0 | 0.0 | 0.00 | 0.00 | 0.00 | 62 | 1012.7 |
| 20260505011904 | 63 | 270 | 0.0 | 0.0 | 0.00 | 0.00 | 0.00 | 61 | 1012.7 |
| 20260505011403 | 63 | 270 | 0.0 | 0.0 | 0.00 | 0.00 | 0.00 | 60 | 1012.7 |
| 20260505005902 | 64 | 269 | 0.0 | 0.0 | 0.00 | 0.00 | 0.00 | 57 | 1012.6 |
| 20260505005402 | 65 | 270 | 0.0 | 0.0 | 0.00 | 0.00 | 0.00 | 56 | 1012.6 |
| 20260505004904 | 65 | 269 | 0.0 | 0.0 | 0.00 | 0.00 | 0.00 | 55 | 1012.6 |
| 20260505004403 | 66 | 269 | 0.0 | 0.0 | 0.00 | 0.00 | 0.00 | 54 | 1012.6 |
| 20260505002903 | 67 | 269 | 0.0 | 0.0 | 0.00 | 0.00 | 0.00 | 52 | 1012.7 |
| 20260505002403 | 68 | 270 | 0.0 | 0.0 | 0.00 | 0.00 | 0.00 | 52 | 1012.7 |
| 20260505001904 | 68 | 270 | 0.0 | 0.0 | 0.00 | 0.00 | 0.00 | 51 | 1012.5 |
| 20260505001403 | 68 | 269 | 0.0 | 0.0 | 0.00 | 0.00 | 0.00 | 50 | 1012.6 |
| 20260505000903 | 69 | 269 | 0.0 | 0.0 | 0.00 | 0.00 | 0.00 | 49 | 1012.6 |
| 20260505000405 | 69 | 270 | 0.0 | 0.0 | 0.00 | 0.00 | 0.00 | 50 | 1012.6 |
| 20260504235902 | 70 | 269 | 0.0 | 0.0 | 0.00 | 0.00 | 0.00 | 48 | 1012.6 |
| 20260504235403 | 70 | 270 | 0.0 | 1.0 | 0.00 | 0.00 | 0.00 | 49 | 1012.6 |
| 20260504234904 | 70 | 270 | 0.0 | 1.0 | 0.00 | 0.00 | 0.00 | 47 | 1012.6 |
| 20260504234403 | 71 | 270 | 0.0 | 1.0 | 0.00 | 0.00 | 0.00 | 46 | 1012.7 |
| 20260504233404 | 71 | 270 | 1.0 | 2.0 | 0.00 | 0.00 | 0.00 | 42 | 1012.7 |
| 20260504232902 | 72 | 256 | 1.0 | 3.0 | 0.00 | 0.00 | 0.00 | 42 | 1012.7 |
| 20260504232403 | 72 | 263 | 1.0 | 1.0 | 0.00 | 0.00 | 0.00 | 41 | 1012.7 |
| 20260504231904 | 73 | 270 | 0.0 | 2.0 | 0.00 | 0.00 | 0.00 | 42 | 1012.7 |
| 20260504230903 | 74 | 259 | 1.0 | 3.0 | 0.00 | 0.00 | 0.00 | 37 | 1012.8 |
| 20260504230404 | 74 | 243 | 2.0 | 3.0 | 0.00 | 0.00 | 0.00 | 35 | 1012.8 |
| 20260504225903 | 75 | 199 | 2.0 | 5.0 | 0.00 | 0.00 | 0.00 | 34 | 1012.7 |
| 20260504225403 | 75 | 156 | 2.0 | 7.0 | 0.00 | 0.00 | 0.00 | 33 | 1012.8 |
| 20260504224904 | 75 | 185 | 3.0 | 6.0 | 0.00 | 0.00 | 0.00 | 33 | 1012.8 |
| 20260504224403 | 75 | 251 | 4.0 | 8.0 | 0.00 | 0.00 | 0.00 | 33 | 1012.9 |
| 20260504223903 | 75 | 253 | 5.0 | 8.0 | 0.00 | 0.00 | 0.00 | 33 | 1012.9 |
| 20260504223404 | 76 | 225 | 5.0 | 12.0 | 0.00 | 0.00 | 0.00 | 36 | 1012.9 |
| 20260504222903 | 76 | 215 | 3.0 | 9.0 | 0.00 | 0.00 | 0.00 | 37 | 1012.6 |
| 20260504222403 | 76 | 261 | 3.0 | 10.0 | 0.00 | 0.00 | 0.00 | 37 | 1012.6 |
| 20260504221904 | 76 | 188 | 3.0 | 9.0 | 0.00 | 0.00 | 0.00 | 37 | 1012.6 |
| 20260504221403 | 76 | 207 | 2.0 | 7.0 | 0.00 | 0.00 | 0.00 | 38 | 1012.6 |
| 20260504220903 | 76 | 251 | 2.0 | 7.0 | 0.00 | 0.00 | 0.00 | 38 | 1012.6 |
| 20260504220404 | 76 | 187 | 4.0 | 8.0 | 0.00 | 0.00 | 0.00 | 36 | 1012.6 |
| 20260504215903 | 77 | 225 | 5.0 | 9.0 | 0.00 | 0.00 | 0.00 | 37 | 1012.6 |
| 20260504215403 | 77 | 186 | 5.0 | 10.0 | 0.00 | 0.00 | 0.00 | 35 | 1012.6 |
| 20260504214904 | 78 | 234 | 5.0 | 8.0 | 0.00 | 0.00 | 0.00 | 36 | 1012.5 |
| 20260504214403 | 78 | 153 | 3.0 | 8.0 | 0.00 | 0.00 | 0.00 | 36 | 1012.5 |